Tracking 29892 objects as of 21-Nov-2024
HD Live streaming from Space Station
objects crossing your sky now

CZ-6A DEB

Track CZ-6A DEB now!
10-day predictions


NORAD ID: 54969
Int'l Code: 2022-151TJ
Perigee: 834.6 km
Apogee: 904.8 km
Inclination: 98.8 °
Period: 102.2 minutes
Semi major axis: 7240 km
RCS: Unknown
Launch date: November 11, 2022
Source: People's Republic of China (PRC)
Launch site: Taiyaun Space Center, China (TSC)

Note: This is SATELLITE DEBRIS
Your satellite tracking list
Your tracking list is empty




NASA's NSSDC Master Catalog

Two Line Element Set (TLE):
1 54969U 22151TJ  24325.46014767  .00000372  00000-0  23699-3 0  9999
2 54969  98.8386 325.4215 0048517 143.3186 217.1321 14.09072580103849
Source of the keplerian elements: AFSPC